Home > Weather > Steinfurt > Past weeks

Flag for Germany Weather for the Past 2 Weeks in Steinfurt, North Rhine-Westphalia, Germany

Now
45 °F

Quite cool.


Feels Like: 37 °F
Forecast: 39 / 46 °F
Wind: 20 mph from Southwest

Location: Rheine-Bentlage

Current Time: Feb 8, 2016 at 8:01:43 PM

Latest Report: Feb 8, 2016 at 7:20 PM


Visibility: N/A

Pressure: 29.18 "Hg

Humidity: 81%

Dew point: 39 °F

Location of SteinfurtLocation

Historic Weather in Steinfurt — Graph

°F

Steinfurt Temperature Yesterday

Maximum temperature yesterday: 52 °F (at 7:20 AM)
Minimum temperature yesterday: 45 °F (at 2:20 AM)
Average temperature yesterday: 48 °F

High & Low Weather Summary for the Past Weeks

 TemperatureHumidityPressure
High57 °F (Jan 25, 2:20 PM)100% (Jan 24, 6:20 PM)30.33 "Hg (Jan 24, 6:20 PM)
Low36 °F (Feb 4, 1:20 AM)57% (Jan 28, 3:20 PM)29.15 "Hg (Feb 8, 1:20 PM)
Average46 °F82%29.92 "Hg
* Reported Jan 24 6:20 PM — Feb 8 6:20 PM, Steinfurt, Weather by CustomWeather, © 2016

Note: Actual official high and low records may vary slightly from our data, if they occured in-between our weather recording intervals... More about our weather records

Advertising

Steinfurt Weather History for the Previous 24 Hours

 ConditionsComfort  
Time TempWeatherWind HumidityBarometerVisibility
6:20 PM
Mon, Feb 8
48 °FCool.21 mph62%29.18 "HgN/A
5:20 PM46 °FCool.20 mph66%29.18 "HgN/A
4:20 PM46 °FCool.17 mph71%29.18 "HgN/A
3:20 PM48 °FCool.16 mph62%29.15 "HgN/A
2:20 PM50 °FCool.15 mph62%29.15 "HgN/A
1:20 PM50 °FCool.17 mph62%29.15 "HgN/A
12:20 PM46 °FCool.8 mph82%29.18 "HgN/A
11:20 AM41 °FQuite cool.12 mph87%29.18 "HgN/A
10:20 AM48 °FCool.15 mph82%29.18 "HgN/A
9:20 AM46 °FCool.12 mph87%29.18 "HgN/A
8:20 AM45 °FQuite cool.15 mph87%29.18 "HgN/A
7:20 AM45 °FQuite cool.17 mph93%29.21 "HgN/A
6:20 AM46 °FCool.17 mph82%29.21 "HgN/A
5:20 AM45 °FQuite cool.17 mph81%29.27 "HgN/A
4:20 AM46 °FCool.17 mph71%29.27 "HgN/A
3:20 AM46 °FCool.17 mph66%29.33 "HgN/A
2:20 AM45 °FQuite cool.15 mph66%29.39 "HgN/A
1:20 AM45 °FQuite cool.14 mph66%29.42 "HgN/A
12:20 AM45 °FQuite cool.15 mph66%29.47 "HgN/A
11:20 PM
Sun, Feb 7
45 °FQuite cool.13 mph66%29.50 "HgN/A
10:20 PM45 °FQuite cool.12 mph66%29.53 "HgN/A
9:20 PM45 °FQuite cool.12 mph66%29.53 "HgN/A
8:20 PM45 °FQuite cool.10 mph66%29.53 "HgN/A
Weather by CustomWeather, © 2016

See weather overviewHow to use our weather pages